COSMOS 249 DEB, 3755

Orbit data source: Space-Track

COSMOS 249 DEB, 3755 is space debris in LEO originally from a launch on Sun, 20 Oct 1968 UTC launched from the Tyuratam Missile And Space Complex (TTMTR). Debris objects in space refer to the collection of defunct objects orbiting the Earth. Examples of debris include non-operational satellites, rocket bodies, and fragments generated from explosions, collisions, or faulty payload assembly.

Loading next visibility...
Identifier
3755, 1968-091AT
Orbit
LEO
Country
Flag of CISCIS
Related business
Manufacturer
Unknown
Mission
Spacecraft
Bus & Motor
Unknown
Mass
Unknown
Launch date (UTC)
1968-10-20 (58 years ago)
Launch vehicle
Unknown
Launch site
Tyuratam Missile And Space Complex (TTMTR)
Object type
Payload
Rocket body
Debris
Shape & HBR
Unknown shape, 0.1 m
Radar Cross Section
Medium (>0.1 m² and <1 m²)

Expand to show TLE details & history
Last TLE update: 2 days ago

TLE from 2 days ago
0 COSMOS 249 DEB
1 03755U 68091AT  26252.14473189  .00000012  00000-0  11187-3 0  9992
2 03755  62.2446 302.4003 0774963 134.3409 232.3824 12.81758191654213
Epoch: 2026-09-09T03:28Z
TLE epoch observation values (Epoch: 2026-09-09T03:28:24.835Z)
Latitude
-0.00006°
Longitude
-97.90421°
Altitude
1,727.975 km
Speed
6.834 km/s
True Right ascension
20h 09m 36s
True Declination
0° 00' 00"
Sunlit
Object was in full shadow at epoch
Visualization orbit readout
Latitude
Unknown
Longitude
Unknown
Altitude
Unknown
Speed
Unknown
Apparent Right ascension
Unknown
Apparent Declination
Unknown
Sunlit
N/A
Visualization observer readout
Local Sidereal Time
00:39:01
Azimuth
Unknown
Elevation
Unknown
Doppler factor
Unknown
Orbital elements
Apogee altitude
1,931.024 km
Perigee altitude
735.791 km
Semi-major axis
7,711.544 km
Eccentricity
0.0775
Inclination
62.2446°
RAAN
302.4003°
Arg. of periapsis
134.3409°
True anomaly
225.75638°
Mean anomaly
232.3824°
Eccentric anomaly
229.02981°
Mean motion
3.20502 °/min
Orbital period
112.32 mins
BSTAR
0.00011187
Loading maneuver chart data...
Computing Atmospheric mass density...

Documentation

Showing up to 5 results
|